Location: Chantarel
(45.1638°N, 1.7873°E)
Time: 14:26:16
(UTC+00:00)

USA 307 - Pass Details

Date: 03 March 2021
Orbit: 567 x 577 km, 54.0° (Epoch: 15 April)

Event Time Altitude Azimuth Distance (km) Brightness Sun altitude
Rises 18:14:54 0° 274° (W) 2,784 8.9 -6.4°
Reaches altitude 10° 18:17:24 10° 286° (WNW) 1,885 7.0 -6.9°
Maximum altitude 18:21:09 29° 347° (NNW) 1,077 4.4 -7.5°
Drops below altitude 10° 18:24:54 10° 48° (NE) 1,881 5.1 -8.2°
Enters shadow 18:25:53 - 54° (NE) 2,222 5.4 -8.4°
